80002 ZGHA-ZSSS

Flight info

Callsign 80002
Flight time N/A
Altitude 29100
Route PATVO H166 ELNEX G204 JTN
Aircraft B752/M-SDE3FGHIM3RWXY/LB1

Departure

Time 2026-05-01 10:28
Airport Changsha Huanghua International Airport (ZGHA)

Arrival

Time N/A
Airport Shanghai Hongqiao International Airport (ZSSS)
Time Latitude Longitude Altitude Speed Heading
2026-05-01 10:10 28.19337 113.21550 223 ft 0 kts 239°
2026-05-01 10:20 28.19347 113.21571 223 ft 2 kts 239°
2026-05-01 10:20 28.19355 113.21585 223 ft 2 kts 240°
2026-05-01 10:20 28.19363 113.21600 223 ft 2 kts 239°
2026-05-01 10:20 28.19370 113.21615 223 ft 2 kts 240°
2026-05-01 10:21 28.19378 113.21629 223 ft 2 kts 240°
2026-05-01 10:21 28.19390 113.21653 223 ft 1 kts 221°
2026-05-01 10:21 28.19397 113.21658 223 ft 0 kts 183°
2026-05-01 10:22 28.19403 113.21658 223 ft 0 kts 187°
2026-05-01 10:23 28.19387 113.21655 223 ft 9 kts 186°
2026-05-01 10:23 28.19308 113.21652 223 ft 10 kts 176°
2026-05-01 10:24 28.19185 113.21664 223 ft 12 kts 163°
2026-05-01 10:25 28.18898 113.21791 223 ft 13 kts 177°
2026-05-01 10:25 28.18634 113.21806 223 ft 35 kts 176°
2026-05-01 10:26 28.18318 113.21827 223 ft 50 kts 176°
2026-05-01 10:26 28.17969 113.21847 223 ft 49 kts 176°
2026-05-01 10:26 28.17742 113.21955 223 ft 12 kts 84°
2026-05-01 10:27 28.17820 113.22044 223 ft 8 kts 356°
2026-05-01 10:27 28.18518 113.21999 224 ft 129 kts 358°
2026-05-01 10:28 28.19273 113.21969 348 ft 173 kts 358°
2026-05-01 10:28 28.21154 113.21873 1621 ft 206 kts 359°
2026-05-01 10:28 28.22559 113.21775 2759 ft 207 kts 358°
2026-05-01 10:29 28.25525 113.22340 3621 ft 236 kts 42°
2026-05-01 10:29 28.25894 113.22720 3733 ft 241 kts 52°
2026-05-01 10:30 28.26541 113.26330 4615 ft 264 kts 113°
2026-05-01 10:30 28.24513 113.29868 6146 ft 276 kts 129°
2026-05-01 10:31 28.22252 113.33511 7739 ft 289 kts 129°
2026-05-01 10:31 28.19923 113.37303 9335 ft 301 kts 129°
2026-05-01 10:32 28.17460 113.41321 10539 ft 327 kts 128°
2026-05-01 10:32 28.16135 113.43481 10917 ft 347 kts 128°
2026-05-01 10:32 28.13222 113.48257 11943 ft 375 kts 125°
2026-05-01 10:33 28.10908 113.53610 13409 ft 386 kts 117°
2026-05-01 10:33 28.08630 113.59208 14793 ft 394 kts 117°
2026-05-01 10:34 28.07479 113.62038 15419 ft 398 kts 117°
2026-05-01 10:34 28.06319 113.64892 16068 ft 402 kts 117°
2026-05-01 10:34 28.05185 113.67821 16656 ft 409 kts 111°
2026-05-01 10:35 28.04676 113.74226 17917 ft 421 kts 83°
2026-05-01 10:35 28.05074 113.77555 18488 ft 427 kts 83°
2026-05-01 10:35 28.05464 113.80853 19210 ft 428 kts 83°
2026-05-01 10:35 28.05871 113.84227 19798 ft 433 kts 83°
2026-05-01 10:36 28.06694 113.90997 20889 ft 441 kts 83°
2026-05-01 10:36 28.07114 113.94449 21479 ft 443 kts 83°
2026-05-01 10:36 28.07539 113.97942 21710 ft 455 kts 83°